Location: Heathcote
(40.9845°N, 73.7746°W)
Time: 04:10:23
(UTC+00:00)

Meteor 2-15 - Pass Details

Date: 29 October 2020
Orbit: 935 x 956 km, 82.5° (Epoch: 23 November)

Event Time Altitude Azimuth Distance (km) Brightness Sun altitude
Rises 22:55:19 0° 176° (S) 3,619 7.5 -12.1°
Reaches altitude 10° 22:57:49 10° 173° (S) 2,676 6.8 -12.6°
Maximum altitude 23:03:51 64° 94° (E) 1,054 4.4 -13.7°
Drops below altitude 10° 23:09:55 10° 14° (NNE) 2,684 6.6 -14.8°
Sets 23:12:26 0° 12° (NNE) 3,631 7.3 -15.3°
